Flag for U.S.A. Weather past 2 weeks in Orlando, Florida, U.S.A.

Now
51 °F

Clear.


Feels Like: 49 °F
Forecast: 46 / 70 °F
Wind: 6 mph from Northwest

Location: Orlando Executive Airport

Current Time: Dec 18, 2014 at 5:03:41 AM

Latest Report: Dec 18, 2014 at 3:53 AM


Visibility: 10 mi

Pressure: 30.15 "Hg

Humidity: 83%

Dew point: 46 °F

Location of OrlandoLocation

Historic Weather in Orlando — Graph

°F

Orlando temperature yesterday

Maximum temperature yesterday: 73 °F (at 1:53 PM)
Minimum temperature yesterday: 55 °F (at 11:53 PM)
Average temperature yesterday: 64 °F

Past Weeks' High & Low Weather Summary

 TemperatureHumidityPressure
High81 °F (Dec 4, 1:53 PM)100% (Dec 4, 6:53 AM)30.29 "Hg (Dec 4, 6:53 AM)
Low43 °F (Dec 13, 3:53 AM)21% (Dec 13, 1:53 PM)30.01 "Hg (Dec 9, 2:53 PM)
Average61 °F72%30.15 "Hg
* Reported Dec 3 3:53 AM — Dec 18 3:53 AM, Orlando, Weather by CustomWeather, © 2014

Note: Actual official high and low records may vary slightly from our data, if they occured in-between our weather recording intervals... More about our weather records

Advertising

Orlando weather history for previous 24 hours

 ConditionsComfort  
Time TempWeatherWind HumidityBarometerVisibility
3:53 AM
Dec 18
51 °FClear.6 mph83%30.15 "Hg10 mi
2:53 AM51 °FClear.6 mph83%30.15 "Hg10 mi
1:53 AM51 °FClear.5 mph83%30.14 "Hg10 mi
12:53 AM53 °FClear.5 mph74%30.17 "Hg10 mi
11:53 PM
Dec 17
55 °FClear.No wind69%30.18 "Hg10 mi
10:53 PM57 °FClear.5 mph64%30.18 "Hg10 mi
9:53 PM60 °FClear.8 mph60%30.18 "Hg10 mi
8:53 PM61 °FClear.7 mph62%30.16 "Hg10 mi
7:53 PM61 °FClear.6 mph62%30.14 "Hg10 mi
6:53 PM67 °FClear.5 mph49%30.14 "Hg10 mi
5:53 PM69 °FClear.3 mph44%30.11 "Hg10 mi
4:53 PM71 °FSunny.8 mph41%30.12 "Hg10 mi
3:53 PM73 °FSunny.8 mph38%30.11 "Hg10 mi
2:53 PM73 °FSunny.9 mph36%30.11 "Hg10 mi
1:53 PM73 °FSunny.6 mph38%30.12 "Hg10 mi
12:53 PM71 °FSunny.No wind42%30.16 "Hg10 mi
11:53 AM69 °FSunny.3 mph49%30.19 "Hg10 mi
10:53 AM66 °FSunny.3 mph59%30.22 "Hg10 mi
9:53 AM63 °FSunny.3 mph70%30.22 "Hg10 mi
8:53 AM61 °FSunny.6 mph78%30.21 "Hg10 mi
7:53 AM59 °FPartly sunny.6 mph90%30.20 "Hg10 mi
6:53 AM60 °FPassing clouds.No wind90%30.17 "Hg10 mi
5:53 AM60 °FPassing clouds.7 mph93%30.17 "Hg10 mi
Weather by CustomWeather, © 2014

See weather overviewHow to use our weather pages